Tracking 19212 objects as of 17-Jul-2018
HD Live streaming from Space Station
objects crossing your sky now

COSMOS 1136

Track COSMOS 1136 now!
10-day predictions
COSMOS 1136 is classified as:


NORAD ID: 11544
Int'l Code: 1979-084G
Perigee: 1,479.1 km
Apogee: 1,503.9 km
Inclination: 74.0 °
Period: 115.6 minutes
Semi major axis: 7862 km
RCS: 0.6827 m2 (medium)
Launch date: September 25, 1979
Source: Commonwealth of Independent States (former USSR) (CIS)
Launch site: PLESETSK MISSILE AND SPACE COMPLEX (PKMTR)
aabbcc
Your satellite tracking list
Your tracking list is empty




NASA's NSSDC Master Catalog

Two Line Element Set (TLE):
1 11544U 79084G   18197.92669258 -.00000028 +00000-0 -83118-4 0  9993
2 11544 074.0248 015.1006 0015771 343.2539 168.7319 12.45266957764082
Source of the keplerian elements: AFSPC